Weather History for Port Clinton Carl R Keller Fi, OH

Change the Weather History Date:

Friday, January 31, 2014

  Actual Average (KTOL) Record (KTOL)
Temperature  
Mean Temperature 32 °F 26 °F  
Max Temperature 37 °F 33 °F 62 °F (1989)
Min Temperature 28 °F 18 °F -5 °F (1971)
Degree Days  
Heating Degree Days 32 39  
Month to date heating degree days 1227  
Since 1 July heating degree days 3549  
Cooling Degree Days 0 0  
Month to date cooling degree days 0  
Year to date cooling degree days 0  
Moisture  
Dew Point 23 °F    
Average Humidity 70    
Maximum Humidity 93    
Minimum Humidity 51    
Precipitation  
Precipitation 0.00 in 0.06 in 0.93 in (2002)
Month to date precipitation 2.05  
Year to date precipitation 2.05  
Snow  
Snow 0.00 in 0.40 in - ()
Month to date snowfall 11.6  
Since 1 July snowfall 21.1  
Snow Depth -    
Sea Level Pressure  
Sea Level Pressure 30.05 in    
Wind  
Wind Speed 10 mph (SSW)    
Max Wind Speed 14 mph    
Max Gust Speed -    
Visibility 9 miles    
Events Snow    
T = Trace of Precipitation, MM = Missing Value Source: NWS Daily Summary

Daily Weather History Graph

Daily Weather History Graph

Search for Another Location

Airport:

Trip Planner

Search our weather history database for the weather conditions in past years. The results will help you decide how hot, cold, wet, or windy it might be!

Date:

Astronomy

Jan. 31, 2014 Rise Set
Actual Time 7:44 AM EST 5:46 PM EST
Civil Twilight 7:14 AM EST 6:15 PM EST
Nautical Twilight 6:41 AM EST 6:48 PM EST
Astronomical Twilight 6:09 AM EST 7:21 PM EST
Moon 7:51 AM EST (1/31) 7:10 PM EST (1/31)
Length of Visible Light 11h 00m
Length of Day
10h 02m
New Moon, 1% of the Moon is Illuminated
Jan 31
New Moon
Feb 6
First Quarter
Feb 14
Full
Feb 22
Last Quarter
Mar 1
New

Hourly Weather History & Observations

Time (EST) Temp. Windchill Dew Point Humidity Pressure Visibility Wind Dir Wind Speed Gust Speed Precip Events Conditions
12:14 AM 30.2 °F 20.8 °F 17.6 °F 60% 29.89 in 10.0 mi South 11.5 mph - N/A   Overcast
12:34 AM 30.2 °F 20.2 °F 15.8 °F 55% 29.88 in 10.0 mi SSW 12.7 mph - N/A   Overcast
12:54 AM 30.2 °F 20.8 °F 15.8 °F 55% 29.89 in 10.0 mi SSW 11.5 mph - N/A   Overcast
1:14 AM 30.2 °F 21.3 °F 15.8 °F 55% 29.90 in 10.0 mi SSW 10.4 mph - N/A   Overcast
1:34 AM 30.2 °F 19.8 °F 17.6 °F 60% 29.89 in 10.0 mi SSW 13.8 mph - N/A   Overcast
1:54 AM 32.0 °F 22.5 °F 17.1 °F 54% 29.90 in 10.0 mi SSW 12.7 mph - N/A   Overcast
2:14 AM 30.2 °F 20.2 °F 15.8 °F 55% 29.92 in 10.0 mi SSW 12.7 mph - N/A   Overcast
2:34 AM 32.0 °F 22.5 °F 15.8 °F 51% 29.92 in 10.0 mi South 12.7 mph - N/A   Overcast
2:54 AM 32.0 °F 22.5 °F 15.8 °F 51% 29.93 in 10.0 mi SSW 12.7 mph - N/A   Overcast
3:14 AM 32.0 °F 23.6 °F 15.8 °F 51% 29.92 in 10.0 mi SSW 10.4 mph - N/A   Overcast
3:34 AM 32.0 °F 23.0 °F 15.8 °F 51% 29.94 in 10.0 mi SSW 11.5 mph - N/A   Overcast
3:53 AM 32.0 °F 23.6 °F 17.6 °F 55% 29.95 in 10.0 mi SSW 10.4 mph - N/A   Overcast
4:14 AM 32.0 °F 23.0 °F 17.6 °F 55% 29.95 in 10.0 mi SSW 11.5 mph - N/A   Overcast
4:28 AM 32.0 °F 24.8 °F 17.6 °F 55% 29.94 in 10.0 mi SSW 8.1 mph - N/A   Overcast
4:54 AM 32.0 °F 23.6 °F 17.1 °F 54% 29.95 in 10.0 mi SSW 10.4 mph - N/A   Overcast
5:14 AM 32.0 °F 23.6 °F 17.6 °F 55% 29.96 in 10.0 mi SSW 10.4 mph - N/A   Overcast
5:27 AM 30.2 °F 21.3 °F 17.6 °F 60% 29.96 in 10.0 mi SSW 10.4 mph - N/A   Overcast
5:54 AM 32.0 °F 24.2 °F 18.1 °F 57% 29.97 in 10.0 mi SSW 9.2 mph - N/A   Overcast
6:14 AM 32.0 °F 23.6 °F 17.6 °F 55% 29.97 in 10.0 mi SSW 10.4 mph - N/A   Overcast
6:33 AM 32.0 °F 23.6 °F 17.6 °F 55% 29.99 in 10.0 mi SSW 10.4 mph - N/A   Overcast
6:54 AM 32.0 °F 23.6 °F 17.6 °F 55% 29.99 in 10.0 mi SSW 10.4 mph - N/A   Overcast
7:14 AM 32.0 °F 24.8 °F 17.6 °F 55% 30.00 in 10.0 mi SSW 8.1 mph - N/A   Overcast
7:33 AM 32.0 °F 24.2 °F 19.4 °F 60% 30.01 in 10.0 mi SSW 9.2 mph - N/A   Overcast
7:54 AM 32.0 °F 23.6 °F 19.0 °F 59% 30.03 in 10.0 mi SSW 10.4 mph - N/A   Overcast
8:14 AM 32.0 °F 24.2 °F 19.4 °F 60% 30.04 in 10.0 mi SSW 9.2 mph - N/A   Overcast
8:34 AM 32.0 °F 23.6 °F 19.4 °F 60% 30.05 in 10.0 mi SSW 10.4 mph - N/A   Overcast
8:53 AM 32.9 °F 24.7 °F 20.1 °F 59% 30.04 in 10.0 mi SW 10.4 mph - N/A   Overcast
9:14 AM 33.8 °F 25.8 °F 19.4 °F 56% 30.05 in 10.0 mi SSW 10.4 mph - N/A   Overcast
9:34 AM 33.8 °F 26.4 °F 21.2 °F 60% 30.07 in 10.0 mi SW 9.2 mph - N/A   Overcast
9:53 AM 33.8 °F 26.4 °F 21.2 °F 60% 30.07 in 10.0 mi SW 9.2 mph - N/A   Overcast
10:14 AM 33.8 °F 25.8 °F 21.2 °F 60% 30.08 in 10.0 mi SW 10.4 mph - N/A   Overcast
10:34 AM 33.8 °F 27.0 °F 21.2 °F 60% 30.07 in 10.0 mi SSW 8.1 mph - N/A   Overcast
10:53 AM 34.0 °F 28.0 °F 23.0 °F 64% 30.07 in 10.0 mi Variable 6.9 mph - N/A   Scattered Clouds
11:14 AM 33.8 °F 25.3 °F 24.8 °F 70% 30.07 in 10.0 mi SW 11.5 mph - N/A   Clear
11:34 AM 33.8 °F 27.0 °F 24.8 °F 70% 30.06 in 10.0 mi SSW 8.1 mph - N/A   Partly Cloudy
11:53 AM 34.9 °F 27.7 °F 24.1 °F 65% 30.06 in 10.0 mi SSW 9.2 mph - N/A   Clear
12:14 PM 35.6 °F 28.6 °F 24.8 °F 65% 30.07 in 10.0 mi SW 9.2 mph - N/A   Clear
12:34 PM 37.4 °F 30.8 °F 24.8 °F 60% 30.06 in 10.0 mi SSW 9.2 mph - N/A   Clear
12:54 PM 37.4 °F 30.8 °F 26.6 °F 65% 30.06 in 10.0 mi WSW 9.2 mph - N/A   Scattered Clouds
1:14 PM 35.6 °F 28.0 °F 26.6 °F 70% 30.07 in 10.0 mi SSW 10.4 mph - N/A   Mostly Cloudy
1:34 PM 35.6 °F 27.5 °F 24.8 °F 65% 30.07 in 10.0 mi SSW 11.5 mph - N/A   Mostly Cloudy
1:54 PM 35.6 °F 27.5 °F 24.8 °F 65% 30.08 in 10.0 mi SSW 11.5 mph - N/A   Mostly Cloudy
2:11 PM 35.6 °F 27.5 °F 24.8 °F 65% 30.08 in 10.0 mi SSW 11.5 mph - N/A   Mostly Cloudy
2:34 PM 35.6 °F 27.5 °F 26.6 °F 70% 30.09 in 10.0 mi SW 11.5 mph - N/A   Mostly Cloudy
2:54 PM 35.6 °F 28.0 °F 26.6 °F 70% 30.09 in 5.0 mi SW 10.4 mph - N/A Snow Light Snow
3:14 PM 33.8 °F 27.0 °F 28.4 °F 81% 30.09 in 2.5 mi SSW 8.1 mph - N/A Snow Light Snow
3:34 PM 33.8 °F 26.4 °F 28.4 °F 81% 30.10 in 4.0 mi SSW 9.2 mph - N/A Snow Light Snow
3:54 PM 33.8 °F 27.7 °F 28.4 °F 81% 30.11 in 5.0 mi SSW 6.9 mph - N/A Snow Light Snow
4:07 PM 32.0 °F 24.8 °F 28.4 °F 87% 30.11 in 3.0 mi SSW 8.1 mph - N/A Snow Light Snow
4:24 PM 32.0 °F 24.8 °F 28.4 °F 87% 30.11 in 2.5 mi SSW 8.1 mph - N/A Snow Light Snow
4:52 PM 32.0 °F 25.6 °F 28.4 °F 87% 30.11 in 4.0 mi SSW 6.9 mph - N/A Snow Light Snow
5:14 PM 30.2 °F 23.4 °F 28.4 °F 93% 30.12 in 9.0 mi South 6.9 mph - N/A   Overcast
5:34 PM 30.2 °F 23.4 °F 26.6 °F 86% 30.12 in 6.0 mi SSW 6.9 mph - N/A   Overcast
5:54 PM 30.2 °F 23.4 °F 26.6 °F 86% 30.12 in 8.0 mi South 6.9 mph - N/A   Overcast
6:14 PM 30.2 °F 23.4 °F 26.6 °F 86% 30.11 in 10.0 mi South 6.9 mph - N/A   Overcast
6:34 PM 30.2 °F 23.4 °F 26.6 °F 86% 30.13 in 10.0 mi South 6.9 mph - N/A   Overcast
6:54 PM 30.2 °F 23.4 °F 26.6 °F 86% 30.14 in 10.0 mi SSW 6.9 mph - N/A   Overcast
7:14 PM 30.2 °F 23.4 °F 26.6 °F 86% 30.15 in 10.0 mi SSW 6.9 mph - N/A   Mostly Cloudy
7:34 PM 30.2 °F 24.3 °F 26.6 °F 86% 30.14 in 10.0 mi SSW 5.8 mph - N/A   Mostly Cloudy
7:54 PM 30.2 °F 24.3 °F 26.6 °F 86% 30.13 in 10.0 mi SSW 5.8 mph - N/A   Mostly Cloudy
8:05 PM 30.2 °F 24.3 °F 26.6 °F 86% 30.14 in 10.0 mi SSW 5.8 mph - N/A   Mostly Cloudy
8:31 PM 30.2 °F 24.3 °F 26.6 °F 86% 30.15 in 10.0 mi SSW 5.8 mph - N/A   Overcast
8:54 PM 30.0 °F 24.1 °F 26.1 °F 85% 30.14 in 10.0 mi SSW 5.8 mph - N/A   Mostly Cloudy
9:14 PM 30.2 °F 25.4 °F 26.6 °F 86% 30.13 in 10.0 mi South 4.6 mph - N/A   Partly Cloudy
9:34 PM 28.4 °F 23.3 °F 26.6 °F 93% 30.13 in 10.0 mi South 4.6 mph - N/A   Clear
9:54 PM 28.4 °F 24.6 °F 26.6 °F 93% 30.14 in 10.0 mi South 3.5 mph - N/A   Partly Cloudy
10:14 PM 28.4 °F 24.6 °F 26.6 °F 93% 30.13 in 10.0 mi South 3.5 mph - N/A   Clear
10:34 PM 28.4 °F 23.3 °F 26.6 °F 93% 30.13 in 7.0 mi South 4.6 mph - N/A Snow Light Snow
10:54 PM 30.0 °F - 27.1 °F 89% 30.12 in 10.0 mi Calm Calm - N/A   Clear
11:14 PM 28.4 °F - 26.6 °F 93% 30.13 in 10.0 mi Calm Calm - N/A   Clear
11:34 PM 30.2 °F - 26.6 °F 86% 30.14 in 10.0 mi Calm Calm - N/A   Mostly Cloudy
11:53 PM 28.4 °F - 26.6 °F 93% 30.13 in 10.0 mi Calm Calm - N/A   Overcast